星链-2504 (STARLINK-2504 )

导读 | 星芒AI

STARLINK-2504 是 SpaceX Starlink 项目中的一颗低轨通信卫星,属于第二代 Starlink 卫星(Gen2)批次。该卫星于2024年发射,旨在为全球用户提供高速、低延迟的互联网服务。相比第一代卫星,STARLINK-2504 具备更高的带宽和更先进的激光通信技术,可实现星间通信,提升网络效率与覆盖范围。其部署进一步增强了 Starlink 系统在偏远地区和高需求区域的连接能力,支持民用、商业及应急通信应用。

基本信息
目录编号:
48328
目录名称:
STARLINK-2504
国际标识:
2021-036BE
轨道中心:
EARTH
卫星名称:
星链-2504
卫星全名:
星链-2504 (STARLINK-2504 )
卫星状态:
在轨 (已飞行1645 天)
发射日期:
2021-04-29 UTC
国别 :
美国 (US)
星等 :
--
轨道信息
数据来源 国际轨道数据
星历时间: 2025-10-30T15:36:42+0800
5小时前
查看轨道信息
半长轴: 6925.372km
偏心率: 0.0001365
轨道倾角: 53.055°
近地点辐角 100.089°
升交点赤经 326.884°
平近点角 260.025°
近地点: 546.291km
远地点: 548.183km
周期: 95.593分钟
每日圈数: 15.063925
详细信息
固有亮度:
5
最大亮度:
2.5
卫星平台:
Starlink V1.0
覆盖范围:
全球
运营商:
太空探索技术公司
运营商所在国:
美国
制造商(研发单位):
太空探索技术公司
制造商所在国:
美国
使用方式:
暂无
卫星简介
星链(Starlink)计划是由太空探索技术公司(SpaceX)提出的一个巨型低轨卫星互联网星座项目,计划在2019年至2024年间在太空搭建由约1.2万颗卫星组成的“星链”网络,其中1584颗将部署在地球上空550千米处的近地轨道,并从2020年开始工作。该卫星仍在工作。
2D轨道图
3D轨道图
轨道高度分析图
轨道倾角分析图
轨道综合分析图
查看轨道综合分析图